Location: Brno
(49.2000°N, 16.6330°E)
Time: 15:08:07
(UTC+02:00)

ISS - Pass Details

Date: 25 April 2026
Orbit: 414 x 424 km, 51.6° (Epoch: 18 May)

Event Time Altitude Azimuth Distance (km) Brightness Sun altitude
Exits shadow 03:11:58 26° 124° (SE) 876 -2.2 -20.4°
Drops below altitude 10° 03:14:16 10° 84° (E) 1,503 -0.4 -20.2°
Sets 03:16:34 0° 72° (ENE) 2,373 1.0 -19.9°
